TECHSAT 1B (GO-32)

Last updated on Sat Jun 21 2025 00:02:27 GMT+0000 (Coordinated Universal Time)

1 25397U 98043D 25171.36964484 .00000057 00000+0 44848-4 0 9993 2 25397 98.9706 150.7140 0001672 137.8251 222.3056 14.24317657399829
UTC large
Height (km)
Speed (km/s)
/
Latitude / Longitude
Inclination (degrees)
Orbital Period (minutes)
Azimuth
Elevation
Range (km)
Doppler Factor

Next 0 passes for location: London (51.5072 / 0.1276)

Sorry there are no passes over London.